Weather History for Stillwater, OK

Change the Weather History Date:

Wednesday, October 30, 2013

  Actual Average Record
Temperature  
Mean Temperature 69 °F -  
Max Temperature 72 °F 64 °F 82 °F (2000)
Min Temperature 66 °F 43 °F 39 °F (2011)
Cooling Degree Days 4    
Growing Degree Days 19 (Base 50)    
Moisture  
Dew Point 66 °F    
Average Humidity 88    
Maximum Humidity 94    
Minimum Humidity 81    
Precipitation  
Precipitation 0.12 in - - ()
Sea Level Pressure  
Sea Level Pressure 29.82 in    
Wind  
Wind Speed 12 mph (South)    
Max Wind Speed 22 mph    
Max Gust Speed 26 mph    
Visibility 10 miles    
Events Rain , Thunderstorm    
Averages and records for this station are not official NWS values.
T = Trace of Precipitation, MM = Missing Value Source: NWS Daily Summary

Daily Weather History Graph

Daily Weather History Graph

Search for Another Location

Airport:

Trip Planner

Search our weather history database for the weather conditions in past years. The results will help you decide how hot, cold, wet, or windy it might be!

Date:

Astronomy

Oct. 30, 2013 Rise Set
Actual Time 7:49 AM CDT 6:34 PM CDT
Civil Twilight 7:22 AM CDT 7:00 PM CDT
Nautical Twilight 6:52 AM CDT 7:30 PM CDT
Astronomical Twilight 6:22 AM CDT 8:00 PM CDT
Moon 3:46 AM CDT (10/30) 4:14 PM CDT (10/30)
Length of Visible Light 11h 37m
Length of Day
10h 44m
Waning Crescent, 17% of the Moon is Illuminated
Oct 30
Waning Crescent
Nov 3
New
Nov 9
First Quarter
Nov 17
Full
Nov 25
Last Quarter

Hourly Weather History & Observations

Time (CDT) Temp. Dew Point Humidity Pressure Visibility Wind Dir Wind Speed Gust Speed Precip Events Conditions
12:53 AM 72.0 °F 66.9 °F 84% 29.92 in 10.0 mi South 10.4 mph - N/A   Overcast
1:53 AM 72.0 °F 66.9 °F 84% 29.91 in 10.0 mi South 8.1 mph - N/A   Overcast
2:53 AM 72.0 °F 66.9 °F 84% 29.90 in 10.0 mi SSE 6.9 mph - N/A   Overcast
3:53 AM 72.0 °F 66.0 °F 81% 29.89 in 10.0 mi South 10.4 mph - N/A   Overcast
4:53 AM 72.0 °F 66.0 °F 81% 29.89 in 10.0 mi SSE 8.1 mph - N/A   Overcast
5:53 AM 72.0 °F 66.0 °F 81% 29.88 in 10.0 mi South 10.4 mph - N/A   Overcast
6:53 AM 72.0 °F 66.0 °F 81% 29.88 in 10.0 mi South 12.7 mph - N/A   Overcast
7:44 AM 69.8 °F 66.2 °F 88% 29.90 in 10.0 mi South 15.0 mph - 0.01 in Rain , Thunderstorm Light Thunderstorms and Rain
7:53 AM 70.0 °F 66.0 °F 87% 29.87 in 7.0 mi South 11.5 mph - 0.04 in Rain Light Rain
8:13 AM 69.8 °F 66.2 °F 88% 29.89 in 10.0 mi SSE 10.4 mph - 0.04 in   Mostly Cloudy
8:41 AM 69.8 °F 66.2 °F 88% 29.91 in 9.0 mi South 11.5 mph - 0.04 in   Mostly Cloudy
8:53 AM 69.1 °F 66.0 °F 90% 29.87 in 10.0 mi South 13.8 mph - 0.04 in   Overcast
9:53 AM 70.0 °F 66.9 °F 90% 29.88 in 10.0 mi South 17.3 mph 24.2 mph N/A   Overcast
10:53 AM 70.0 °F 66.0 °F 87% 29.85 in 10.0 mi SSE 13.8 mph - N/A   Overcast
11:53 AM 68.0 °F 64.9 °F 90% 29.86 in 10.0 mi South 12.7 mph - 0.01 in   Overcast
12:15 PM 68.0 °F 64.4 °F 88% 29.87 in 9.0 mi South 12.7 mph - N/A   Overcast
12:41 PM 68.0 °F 66.2 °F 94% 29.87 in 7.0 mi South 11.5 mph - 0.01 in Rain Light Rain
12:53 PM 68.0 °F 66.0 °F 93% 29.83 in 7.0 mi South 8.1 mph 19.6 mph 0.02 in Rain Light Rain
1:53 PM 68.0 °F 66.0 °F 93% 29.79 in 10.0 mi South 12.7 mph - 0.01 in   Overcast
2:53 PM 69.1 °F 66.9 °F 93% 29.77 in 10.0 mi SSE 10.4 mph - N/A   Overcast
3:53 PM 72.0 °F 68.0 °F 87% 29.75 in 10.0 mi SE 12.7 mph - N/A   Overcast
4:23 PM 69.8 °F 66.2 °F 88% 29.77 in 10.0 mi SSE 13.8 mph - N/A   Overcast
4:53 PM 72.0 °F 68.0 °F 87% 29.73 in 10.0 mi South 18.4 mph 25.3 mph N/A   Overcast
5:17 PM 71.6 °F 66.2 °F 83% 29.76 in 10.0 mi South 12.7 mph 25.3 mph N/A   Overcast
5:33 PM 71.6 °F 66.2 °F 83% 29.76 in 10.0 mi South 19.6 mph 25.3 mph N/A   Overcast
5:53 PM 70.0 °F 66.0 °F 87% 29.71 in 10.0 mi South 21.9 mph 26.5 mph N/A   Overcast
6:53 PM 69.1 °F 64.9 °F 87% 29.73 in 10.0 mi South 10.4 mph - N/A   Overcast
7:42 PM 66.2 °F 64.4 °F 94% 29.77 in 10.0 mi South 16.1 mph - N/A   Overcast
7:53 PM 66.9 °F 64.0 °F 90% 29.75 in 8.0 mi South 16.1 mph 26.5 mph N/A   Overcast
8:53 PM 66.0 °F 64.0 °F 93% 29.73 in 8.0 mi SSE 13.8 mph - 0.00 in   Overcast
9:53 PM 66.0 °F 64.0 °F 93% 29.71 in 9.0 mi South 17.3 mph 23.0 mph N/A   Overcast
10:53 PM 66.0 °F 64.0 °F 93% 29.71 in 10.0 mi South 12.7 mph - N/A   Overcast
11:53 PM 66.0 °F 63.0 °F 90% 29.70 in 10.0 mi South 9.2 mph 18.4 mph N/A   Overcast